Location: G?julap?du
(16.5372°N, 81.0979°E)
Time: 09:58:42
(UTC+00:00)

SL-08 RB Rocket - Pass Details

Date: 14 April 2026
Orbit: 631 x 666 km, 97.8° (Epoch: 12 May)

Event Time Altitude Azimuth Distance (km) Brightness Sun altitude
Rises 22:28:35 0° 8° (N) 2,921 7.4 -26.8°
Reaches altitude 10° 22:30:46 10° 6° (N) 2,016 6.5 -26.3°
Enters shadow 22:34:01 48° 351° (N) 833 4.2 -25.5°
